EW4711 Weather Reports


Display with metric or nautical units.
time (UTC)temp
F
wind
direction
speed
MPH
gust
MPH
rain 1hr
in
rain 24hr
in
rain mn
in
humidity
%
barometer
mb
20260504081102 49 248 5.0 14.0 0.00 0.03 0.00 72 1006.3
20260504080603 49 264 5.0 12.0 0.00 0.03 0.00 72 1006.4
20260504050603 52 265 6.0 12.0 0.00 0.03 0.00 65 1007.9
20260504050103 53 269 4.0 16.0 0.00 0.03 0.00 63 1007.8
20260504045603 53 259 6.0 12.0 0.00 0.03 0.00 62 1007.9
20260504044602 53 270 6.0 16.0 0.00 0.03 0.00 60 1007.9
20260504044103 54 261 6.0 13.0 0.00 0.03 0.00 60 1007.9
20260504043603 54 270 5.0 23.0 0.00 0.03 0.00 59 1007.9
20260504043103 54 262 5.0 15.0 0.00 0.03 0.00 59 1007.9
20260504042603 54 277 5.0 13.0 0.00 0.03 0.00 59 1007.9
20260504042103 54 285 6.0 13.0 0.00 0.03 0.00 59 1007.9
20260504041603 54 273 9.0 15.0 0.00 0.03 0.00 59 1007.9
20260504041102 54 280 7.0 17.0 0.00 0.03 0.00 59 1007.9
20260504040602 54 293 7.0 16.0 0.00 0.03 0.00 59 1007.9
20260504035603 54 289 9.0 17.0 0.00 0.03 0.03 59 1008.0
20260504035103 54 299 6.0 17.0 0.00 0.03 0.03 59 1008.1
20260504034602 54 295 6.0 15.0 0.00 0.03 0.03 59 1007.9
20260504034105 54 286 6.0 14.0 0.00 0.03 0.03 59 1007.9
20260504033603 54 273 7.0 15.0 0.00 0.03 0.03 58 1007.9
20260504032604 54 283 6.0 13.0 0.00 0.03 0.03 59 1008.0
20260504031603 54 270 5.0 13.0 0.00 0.03 0.03 59 1008.0
20260504031103 54 294 9.0 21.0 0.00 0.03 0.03 59 1008.1
20260504030603 54 290 9.0 16.0 0.00 0.03 0.03 58 1008.1
20260504025603 54 287 7.0 15.0 0.00 0.03 0.03 58 1008.1
20260504025103 54 285 7.0 16.0 0.00 0.03 0.03 58 1008.1
20260504024603 54 280 10.0 17.0 0.00 0.03 0.03 59 1008.1
20260504023603 54 282 7.0 18.0 0.00 0.03 0.03 59 1008.1
20260504023102 53 291 9.0 15.0 0.00 0.03 0.03 60 1008.1
20260504022603 53 272 6.0 12.0 0.00 0.03 0.03 60 1008.2
20260504022102 53 284 7.0 20.0 0.00 0.03 0.03 60 1008.1
20260504021603 53 284 6.0 16.0 0.00 0.03 0.03 60 1008.1
20260504021103 53 288 8.0 16.0 0.00 0.03 0.03 60 1008.1
20260504020602 53 276 6.0 16.0 0.00 0.03 0.03 61 1008.2
20260504020103 53 291 11.0 24.0 0.00 0.03 0.03 61 1008.2
20260504015603 53 282 7.0 15.0 0.00 0.03 0.03 61 1008.3
20260504015103 53 267 9.0 17.0 0.00 0.03 0.03 62 1008.2
20260504014603 53 293 9.0 17.0 0.00 0.03 0.03 61 1008.2
20260504013603 53 286 7.0 16.0 0.00 0.03 0.03 62 1008.1
20260504013103 53 279 6.0 14.0 0.00 0.03 0.03 62 1008.1
20260504012602 53 296 10.0 23.0 0.00 0.03 0.03 62 1008.1
20260504011603 53 284 6.0 17.0 0.00 0.03 0.03 63 1008.2
20260504011103 53 276 6.0 17.0 0.00 0.03 0.03 63 1008.1
20260504010603 53 285 8.0 18.0 0.00 0.03 0.03 63 1008.2
20260504005603 52 292 8.0 18.0 0.00 0.03 0.03 65 1008.2
20260504005103 52 277 7.0 17.0 0.00 0.03 0.03 66 1008.2
20260504004603 52 276 8.0 20.0 0.00 0.03 0.03 66 1008.2
20260504004103 52 271 6.0 12.0 0.00 0.03 0.03 68 1008.2
20260504003603 51 286 9.0 16.0 0.00 0.03 0.03 70 1008.2
20260504003103 51 293 6.0 14.0 0.00 0.03 0.03 72 1008.3
20260504002602 51 281 4.0 14.0 0.00 0.03 0.03 74 1008.3
20260504001603 50 284 2.0 9.0 0.01 0.03 0.03 80 1008.3
20260504001102 49 280 4.0 10.0 0.01 0.03 0.03 81 1008.4
20260504000602 49 288 5.0 8.0 0.01 0.03 0.03 84 1008.3
20260503235603 49 267 2.0 3.0 0.01 0.03 0.03 87 1008.4
20260503235102 49 241 1.0 3.0 0.01 0.03 0.03 87 1008.5
20260503233603 50 274 0.0 1.0 0.01 0.03 0.03 87 1008.9
20260503233103 50 274 1.0 2.0 0.02 0.03 0.03 86 1008.9
20260503231603 50 270 1.0 2.0 0.01 0.02 0.02 85 1009.1
20260503231103 50 297 1.0 3.0 0.01 0.02 0.02 85 1009.1
20260503230603 50 328 1.0 3.0 0.01 0.02 0.02 84 1009.0
20260503225603 51 262 2.0 3.0 0.01 0.02 0.02 82 1009.1
20260503225104 51 319 3.0 7.0 0.01 0.02 0.02 81 1009.0
20260503224603 51 342 3.0 9.0 0.01 0.02 0.02 81 1009.1
20260503224103 51 346 3.0 8.0 0.01 0.02 0.02 79 1009.2
20260503223603 52 288 4.0 10.0 0.01 0.02 0.02 78 1009.3
20260503223102 52 304 5.0 13.0 0.00 0.01 0.01 76 1009.3
20260503222603 52 307 6.0 14.0 0.00 0.01 0.01 74 1009.3
20260503222103 53 299 7.0 14.0 0.00 0.01 0.01 72 1009.3
20260503221603 53 337 7.0 16.0 0.00 0.01 0.01 70 1009.1
20260503221103 53 313 5.0 12.0 0.00 0.01 0.01 69 1009.1
20260503220603 53 313 9.0 16.0 0.00 0.01 0.01 68 1009.0
20260503215602 53 296 6.0 13.0 0.00 0.01 0.01 65 1008.8
20260503215102 53 276 5.0 12.0 0.00 0.01 0.01 65 1008.7
20260503214603 53 269 7.0 14.0 0.00 0.01 0.01 65 1008.6
20260503214103 53 293 5.0 14.0 0.00 0.01 0.01 64 1008.5
20260503213603 53 280 6.0 14.0 0.00 0.01 0.01 64 1008.5
20260503213103 53 292 7.0 15.0 0.00 0.01 0.01 64 1008.4
20260503212603 53 276 6.0 14.0 0.00 0.01 0.01 65 1008.4
20260503212103 53 265 5.0 12.0 0.00 0.01 0.01 65 1008.4
20260503211603 52 251 6.0 13.0 0.00 0.01 0.01 65 1008.4
20260503211103 52 244 5.0 12.0 0.00 0.01 0.01 65 1008.4
20260503210603 52 273 6.0 17.0 0.00 0.01 0.01 65 1008.4
20260503210104 52 266 6.0 15.0 0.00 0.01 0.01 64 1008.5
20260503205603 52 275 5.0 13.0 0.00 0.01 0.01 65 1008.5
20260503204603 53 281 5.0 18.0 0.00 0.01 0.01 63 1008.6
20260503204103 53 253 6.0 13.0 0.00 0.01 0.01 64 1008.6
20260503203603 53 259 7.0 16.0 0.00 0.01 0.01 63 1008.7
20260503203103 53 284 6.0 18.0 0.00 0.01 0.01 63 1008.7
20260503202602 54 261 5.0 12.0 0.00 0.01 0.01 61 1008.7
20260503202103 54 252 5.0 15.0 0.00 0.01 0.01 62 1008.7
20260503201603 54 281 6.0 18.0 0.00 0.01 0.01 62 1008.8
20260503201103 54 270 6.0 16.0 0.00 0.01 0.01 60 1008.8
20260503200603 55 246 6.0 14.0 0.00 0.01 0.01 59 1008.9
20260503200104 55 266 6.0 12.0 0.00 0.01 0.01 59 1009.0
20260503195603 55 279 6.0 12.0 0.00 0.01 0.01 60 1009.0
20260503195103 55 282 5.0 15.0 0.00 0.01 0.01 58 1009.1
20260503194603 56 251 6.0 13.0 0.00 0.01 0.01 58 1009.2
20260503194103 55 262 6.0 15.0 0.00 0.01 0.01 58 1009.4
20260503193603 55 271 8.0 14.0 0.00 0.01 0.01 58 1009.5
20260503193103 55 264 8.0 17.0 0.00 0.01 0.01 59 1009.6
20260503192604 55 282 6.0 12.0 0.00 0.01 0.01 59 1009.8
20260503192103 55 262 5.0 20.0 0.00 0.01 0.01 58 1009.8
20260503191603 55 281 8.0 16.0 0.00 0.01 0.01 56 1009.9
20260503191103 54 257 6.0 13.0 0.00 0.01 0.01 57 1010.0
20260503190604 54 254 6.0 14.0 0.00 0.01 0.01 55 1010.0
20260503190104 55 261 7.0 12.0 0.00 0.01 0.01 54 1010.0
20260503185103 56 279 8.0 18.0 0.00 0.01 0.01 54 1010.2
20260503184603 56 270 10.0 23.0 0.00 0.01 0.01 53 1010.3
20260503184103 56 292 10.0 20.0 0.00 0.01 0.01 54 1010.4
20260503183603 55 266 6.0 22.0 0.00 0.01 0.01 52 1010.4
20260503182603 54 263 9.0 17.0 0.00 0.01 0.01 50 1010.6
20260503182103 54 276 7.0 17.0 0.00 0.01 0.01 53 1010.7
20260503181603 54 266 9.0 22.0 0.00 0.01 0.01 51 1010.8
20260503181103 54 260 7.0 20.0 0.00 0.01 0.01 56 1010.8
20260503180603 53 269 6.0 14.0 0.00 0.01 0.01 54 1010.9
20260503180103 54 283 6.0 14.0 0.00 0.01 0.01 56 1011.0
20260503175605 54 285 7.0 16.0 0.00 0.01 0.01 56 1011.1
20260503175103 53 293 5.0 13.0 0.00 0.01 0.01 56 1011.1
20260503174603 53 269 6.0 18.0 0.00 0.01 0.01 54 1011.1
20260503174103 54 292 7.0 20.0 0.00 0.01 0.01 54 1011.1
20260503173603 54 266 7.0 15.0 0.00 0.01 0.01 54 1011.3
20260503173104 53 273 7.0 13.0 0.00 0.01 0.01 54 1011.3
20260503172103 54 296 6.0 14.0 0.00 0.01 0.01 54 1011.6
20260503171602 54 269 6.0 14.0 0.00 0.01 0.01 53 1011.5
20260503171103 54 280 7.0 15.0 0.00 0.01 0.01 51 1011.7
20260503170604 54 285 10.0 20.0 0.00 0.01 0.01 53 1011.7
20260503170103 54 264 5.0 12.0 0.00 0.01 0.01 55 1011.7
20260503140103 51 310 6.0 13.0 0.00 0.01 0.01 70 1013.0
20260503131103 49 270 3.0 9.0 0.00 0.01 0.01 75 1013.3
20260503130603 48 275 5.0 12.0 0.00 0.01 0.01 76 1013.3
20260503120104 38 239 3.0 8.0 0.01 0.01 0.01 85 1013.6
20260503110604 32 249 0.0 2.0 0.00 0.00 0.00 93 1013.5
20260503110104 31 245 1.0 3.0 0.00 0.00 0.00 93 1013.5
20260503090104 29 287 0.0 1.0 0.00 0.00 0.00 89 1013.8